Regional Weather Roundup
Issued by NWS Binghamton, NY

Home | Current Version | Previous Version | Text Only | Print | Product List | Glossary On
Versions: 1 2 3 4 5 6 7 8 9 10 11 12 13 14 15 16 17 18 19 20 21 22 23 24 25 26 27 28 29 30 31 32 33 34 35 36 37 38 39 40 41 42 43 44 45 46 47 48 49
000
ASUS41 KBGM 311410
RWRBGM
RWRBGM
BINGHAMTON REGIONAL WEATHER ROUNDUP
NATIONAL WEATHER SERVICE BINGHAMTON NY
1000 AM EDT MON AUG 31 2015

Note: "fair" indicates few or no clouds below 12,000 feet with no
significant weather and/or obstructions to visibility.

* = Station(s) that does not report precipitation, such as rain,
snow, etc, also no thunder or fog.

!NYZ009-015>018-022>025-036-037-044>046-055>057-062-311500
...CENTRAL NEW YORK...

CITY           SKY/WX    TMP DP  RH WIND       PRES   REMARKS
BINGHAMTON     MOSUNNY   72  67  84 W8        30.09S
CORTLAND       PTSUNNY   75  68  78 W6        30.08S
DANSVILLE      PTSUNNY   76  67  73 CALM      30.06S
ELMIRA         MOSUNNY   75  69  81 SW8       30.06S
ITHACA         MOSUNNY   78  67  68 CALM      30.09R
MONTICELLO     PTSUNNY   72  66  83 NW6       30.10S
PENN YAN       SUNNY     77  68  73 SW6       30.06S
ROME           MOSUNNY   72  65  78 NW6       30.04S
SIDNEY         SUNNY     79  79 100 W3        30.07S
SYRACUSE       PTSUNNY   77  67  71 W13       30.02S
$$

!PAZ038>040-043-044-047-048-072-311500
...NORTHEAST PENNSYLVANIA...

CITY           SKY/WX    TMP DP  RH WIND       PRES   REMARKS
HAZLETON       PTSUNNY   73  68  83 CALM      30.15S
SCRANTON       PTSUNNY   75  67  76 SW5       30.08F
$$
&&
KEY
WCI = WIND CHILL INDEX
VSB = VISIBILITY
HX  = HEAT INDEX
$$



USA.gov is the U.S. government's official web portal to all federal, state and local government web resources and services.